Volver al catálogo

ACCENTURE-1

ActivoCienciaSSO
NORAD 66767·PAYLOAD·🇬🇧 United Kingdom

Lanzado Nov 28, 2025 desde Vandenberg Space Force Base

Loading…

Próximos Pases (próximas 24 horas)

TLE

ActualizadoSource: Space-Track

Época: Sep 14, 2026, 10:50 UTC

1 66767U 25276DF  26257.45153353  .00002684  00000-0  12589-3 0  9993
2 66767  97.4088 329.5467 0001190 114.7789 245.3570 15.20521317 43992

Sigue ACCENTURE-1 en tiempo real con AllMySat

Download on the App Store